QPF
0.00 0.00 0.00 0.00 0.00 0.00 0.00 0.00 0.00 0.00 0.00 0.00 0.00 0.00 0.00 0.00 0.00 0.00 0.00 0.00 0.00 0.00 0.00 0.00 0.00 0.00 0.00 0.00 0.00 0.00 0.00 0.01 0.01 0.00 0.00 0.00 0.00 0.00 0.00 0.00 0.00 0.00
0.00 0.00 0.00 0.00 0.00 0.00 0.00 0.00 0.00 0.00 0.00 0.00 0.00 0.00 0.00 0.00 0.00 0.00 0.00 0.00 0.00 0.00 0.00 0.00 0.00 0.00 0.00 0.00 0.00 0.00 0.00 0.01 0.01 0.00 0.00 0.00 0.00 0.00 0.00 0.00 0.00 0.00
0.00 0.00 0.00 0.00 0.00 0.00 0.00 0.00 0.00 0.00 0.00 0.00 0.00 0.00 0.00 0.00 0.00 0.00 0.00 0.00 0.00 0.00 0.00 0.00 0.00 0.00 0.00 0.00 0.00 0.00 0.00 0.00 0.00 0.00 0.00 0.00 0.00 0.00 0.00 0.00 0.00 0.00
0.00 0.00 0.00 0.00 0.00 0.00 0.00 0.00 0.00 0.00 0.00 0.00 0.00 0.00 0.00 0.00 0.00 0.00 0.00 0.00 0.00 0.00 0.00 0.00 0.00 0.00 0.00 0.00 0.01 0.01 0.00 0.01 0.00 0.00 0.00 0.00 0.00 0.00 0.00 0.00 0.00 0.00
0.00 0.00 0.00 0.00 0.00 0.00 0.00 0.00 0.00 0.00 0.00 0.00 0.00 0.00 0.00 0.00 0.00 0.00 0.00 0.00 0.00 0.00 0.00 0.00 0.00 0.00 0.00 0.00 0.00 0.00 0.00 0.00 0.00 0.00 0.00 0.00 0.00 0.00 0.00 0.00 0.00 0.01
0.00 0.00 0.00 0.00 0.00 0.00 0.00 0.00 0.00 0.00 0.00 0.00 0.00 0.00 0.00 0.00 0.00 0.00 0.00 0.00 0.00 0.00 0.00 0.00 0.00 0.00 0.00 0.00 0.01 0.00 0.00 0.00 0.00 0.00 0.01 0.00 0.00 0.00 0.00 0.02 0.05 0.08
0.00 0.00 0.00 0.00 0.00 0.00 0.00 0.00 0.00 0.00 0.00 0.00 0.00 0.00 0.00 0.00 0.00 0.00 0.00 0.00 0.00 0.00 0.00 0.00 0.00 0.03 0.01 0.00 0.00 0.01 0.01 0.01 0.00 0.00 0.01 0.00 0.00 0.01 0.05 0.05 0.12 0.16
0.00 0.00 0.00 0.00 0.00 0.00 0.00 0.00 0.00 0.00 0.00 0.00 0.00 0.00 0.00 0.00 0.00 0.00 0.00 0.00 0.00 0.00 0.00 0.00 0.00 0.00 0.00 0.00 0.00 0.00 0.00 0.00 0.00 0.01 0.03 0.05 0.08 0.24 0.40 0.36 0.20 0.17
0.00 0.00 0.00 0.00 0.00 0.00 0.00 0.00 0.00 0.00 0.00 0.00 0.00 0.00 0.00 0.00 0.00 0.00 0.00 0.00 0.00 0.00 0.00 0.01 0.01 0.00 0.02 0.01 0.00 0.01 0.00 0.01 0.02 0.12 0.04 0.08 0.06 0.30 0.53 0.75 0.27 0.23
0.00 0.00 0.00 0.00 0.00 0.00 0.00 0.00 0.00 0.00 0.00 0.00 0.00 0.00 0.00 0.00 0.00 0.00 0.00 0.00 0.00 0.00 0.00 0.02 0.07 0.06 0.02 0.05 0.03 0.00 0.00 0.02 0.04 0.06 0.13 0.08 0.20 0.29 0.46 0.60 0.53 0.28
0.00 0.00 0.00 0.00 0.00 0.00 0.00 0.00 0.00 0.00 0.00 0.00 0.00 0.00 0.00 0.00 0.00 0.00 0.00 0.00 0.00 0.00 0.00 0.01 0.02 0.02 0.02 0.08 0.06 0.00 0.01 0.03 0.04 0.01 0.07 0.20 0.40 0.41 0.24 0.41 0.09 0.02
0.00 0.00 0.00 0.00 0.00 0.00 0.00 0.00 0.00 0.00 0.00 0.00 0.00 0.00 0.00 0.00 0.00 0.00 0.00 0.00 0.00 0.00 0.00 0.00 0.00 0.00 0.01 0.03 0.01 0.00 0.04 0.08 0.09 0.14 0.12 0.18 0.08 0.17 0.21 0.20 0.04 0.11
0.00 0.00 0.00 0.00 0.00 0.00 0.00 0.00 0.00 0.00 0.00 0.00 0.00 0.00 0.00 0.00 0.00 0.00 0.00 0.00 0.00 0.00 0.00 0.00 0.00 0.00 0.00 0.00 0.01 0.02 0.02 0.02 0.02 0.02 0.04 0.04 0.04 0.16 0.13 0.18 0.27 0.05
0.00 0.00 0.00 0.00 0.00 0.00 0.00 0.00 0.00 0.00 0.00 0.00 0.00 0.00 0.00 0.00 0.00 0.00 0.00 0.00 0.00 0.00 0.00 0.00 0.00 0.00 0.01 0.01 0.00 0.01 0.01 0.01 0.01 0.01 0.01 0.02 0.07 0.07 0.20 0.29 0.23 0.10
0.03 0.01 0.01 0.00 0.00 0.00 0.00 0.00 0.00 0.00 0.00 0.00 0.00 0.00 0.00 0.00 0.00 0.00 0.00 0.00 0.00 0.00 0.00 0.00 0.00 0.00 0.00 0.00 0.00 0.00 0.00 0.01 0.01 0.01 0.02 0.05 0.05 0.21 0.35 0.33 0.14 0.17
0.15 0.07 0.03 0.01 0.00 0.00 0.00 0.00 0.00 0.00 0.00 0.00 0.00 0.00 0.00 0.00 0.00 0.00 0.00 0.00 0.00 0.00 0.00 0.00 0.00 0.00 0.00 0.00 0.00 0.00 0.00 0.00 0.00 0.00 0.02 0.18 0.33 0.43 0.46 0.23 0.28 0.34
0.11 0.06 0.05 0.02 0.00 0.00 0.00 0.00 0.00 0.01 0.00 0.00 0.00 0.00 0.00 0.00 0.00 0.00 0.00 0.00 0.00 0.00 0.00 0.00 0.00 0.00 0.00 0.00 0.00 0.00 0.00 0.01 0.01 0.02 0.02 0.04 0.09 0.16 0.08 0.48 0.10 0.16
0.17 0.11 0.20 0.09 0.08 0.03 0.02 0.01 0.01 0.01 0.01 0.01 0.01 0.01 0.01 0.01 0.01 0.01 0.01 0.00 0.00 0.00 0.00 0.00 0.00 0.00 0.00 0.00 0.00 0.00 0.00 0.04 0.01 0.03 0.04 0.14 0.03 0.04 0.14 0.10 0.13 0.12
0.11 0.17 0.16 0.19 0.14 0.14 0.13 0.09 0.06 0.01 0.01 0.01 0.01 0.01 0.01 0.01 0.00 0.00 0.00 0.00 0.00 0.00 0.00 0.00 0.00 0.00 0.00 0.01 0.00 0.00 0.00 0.01 0.04 0.03 0.18 0.32 0.06 0.10 0.24 0.36 0.29 0.26
0.23 0.27 0.21 0.27 0.26 0.40 0.58 0.30 0.19 0.13 0.06 0.09 0.15 0.10 0.09 0.04 0.04 0.01 0.00 0.01 0.01 0.02 0.02 0.02 0.02 0.01 0.01 0.02 0.10 0.47 0.19 0.05 0.12 0.09 0.09 0.02 0.02 0.10 0.23 0.22 0.39 0.44
0.33 0.38 0.22 0.27 0.28 0.30 0.30 0.22 0.21 0.27 0.27 0.16 0.09 0.06 0.10 0.08 0.09 0.04 0.03 0.03 0.04 0.05 0.06 0.07 0.07 0.06 0.04 0.02 0.01 0.01 0.00 0.02 0.02 0.01 0.03 0.03 0.02 0.02 0.03 0.07 0.38 0.48
0.43 0.23 0.24 0.23 0.21 0.29 0.51 0.75 0.59 0.69 0.63 0.30 0.29 0.27 0.21 0.11 0.10 0.08 0.08 0.09 0.09 0.08 0.06 0.06 0.04 0.04 0.04 0.03 0.02 0.01 0.01 0.01 0.07 0.07 0.01 0.01 0.01 0.16 0.22 0.40 0.40 0.39
0.26 0.25 0.26 0.25 0.29 0.43 0.37 0.46 0.60 0.81 0.49 0.33 0.44 0.43 0.33 0.35 0.36 0.27 0.17 0.10 0.08 0.07 0.06 0.06 0.04 0.03 0.02 0.02 0.03 0.02 0.01 0.00 0.00 0.01 0.08 0.18 0.16 0.26 0.41 0.26 0.30 0.47
0.39 0.42 0.43 0.40 0.44 0.55 0.57 0.70 0.88 0.70 0.55 0.65 0.53 0.54 0.41 0.39 0.40 0.31 0.33 0.18 0.11 0.07 0.05 0.04 0.03 0.02 0.01 0.01 0.02 0.03 0.01 0.01 0.01 0.01 0.03 0.10 0.48 0.44 0.53 0.48 0.48 0.44
0.25 0.42 0.45 0.46 0.53 0.62 0.84 0.76 0.88 0.79 0.82 0.62 0.63 0.68 0.58 0.42 0.42 0.33 0.27 0.21 0.16 0.11 0.08 0.05 0.03 0.02 0.02 0.02 0.01 0.01 0.00 0.00 0.00 0.01 0.01 0.03 0.14 0.20 0.20 0.29 0.18 0.11
0.17 0.37 0.70 0.53 0.56 0.83 0.81 0.68 0.76 0.64 0.58 0.45 0.48 0.45 0.43 0.40 0.35 0.26 0.22 0.18 0.15 0.12 0.11 0.10 0.09 0.06 0.05 0.03 0.02 0.01 0.01 0.01 0.01 0.01 0.01 0.02 0.02 0.02 0.02 0.02 0.01 0.01
MSLP
1016.26 1016.34 1016.58 1016.70 1016.78 1016.70 1016.74 1016.86 1016.78 1016.94 1017.10 1016.90 1017.10 1017.10 1017.26 1017.10 1017.02 1017.14 1017.10 1017.18 1017.46 1017.62 1017.70 1017.86 1017.86 1017.94 1017.82 1017.86 1017.94 1018.10 1018.18 1018.26 1018.14 1017.98 1018.10 1018.14 1018.18 1018.14 1018.22 1018.18 1018.18 1018.18
1016.14 1016.14 1016.22 1016.26 1016.50 1016.58 1016.62 1016.50 1016.62 1016.70 1016.90 1016.98 1016.70 1016.70 1016.82 1016.86 1016.90 1016.98 1017.14 1017.22 1017.30 1017.38 1017.42 1017.54 1017.62 1017.70 1017.78 1017.70 1017.82 1018.06 1018.18 1018.14 1018.30 1017.66 1017.98 1018.14 1018.18 1017.98 1018.02 1017.94 1018.02 1017.86
1015.86 1016.06 1016.22 1016.30 1016.22 1016.38 1016.26 1016.22 1016.34 1016.50 1016.54 1016.50 1016.50 1016.66 1016.62 1016.58 1016.70 1016.78 1016.86 1017.02 1017.10 1017.06 1017.18 1017.38 1017.46 1017.54 1017.58 1017.66 1017.82 1017.98 1018.06 1018.22 1018.34 1017.82 1017.86 1018.18 1018.02 1018.06 1017.90 1017.74 1017.58 1017.54
1015.62 1015.62 1015.70 1015.78 1015.70 1015.78 1015.82 1015.98 1016.22 1016.38 1016.18 1016.38 1016.54 1016.26 1016.30 1016.10 1016.34 1016.62 1016.82 1017.02 1017.10 1017.14 1017.02 1017.02 1017.22 1017.18 1017.30 1017.46 1017.74 1017.90 1017.82 1018.02 1017.86 1017.82 1017.98 1017.90 1017.86 1017.78 1017.66 1017.54 1017.54 1017.42
1015.18 1015.38 1015.34 1015.38 1015.34 1015.38 1015.46 1015.74 1015.90 1015.94 1016.10 1016.06 1016.06 1016.02 1016.30 1016.54 1016.54 1016.46 1016.58 1016.78 1016.98 1016.98 1016.98 1017.14 1017.14 1017.18 1017.22 1017.42 1017.58 1017.82 1017.66 1017.74 1017.62 1017.74 1017.98 1018.06 1017.82 1017.62 1017.50 1017.26 1017.66 1018.10
1014.74 1014.90 1015.06 1015.18 1015.18 1015.38 1015.50 1015.58 1015.66 1015.58 1015.70 1015.82 1015.98 1015.70 1015.90 1016.18 1016.34 1016.30 1016.34 1016.46 1016.42 1016.58 1016.62 1016.58 1016.74 1016.78 1016.82 1017.10 1017.38 1017.50 1017.46 1017.50 1017.18 1017.50 1017.82 1017.98 1017.78 1017.18 1016.98 1017.70 1018.34 1018.42
1014.50 1014.70 1014.90 1014.90 1015.02 1015.10 1015.34 1015.26 1015.26 1015.30 1015.34 1015.38 1015.42 1015.66 1015.62 1015.90 1016.14 1016.18 1016.26 1016.34 1016.34 1016.30 1016.30 1016.42 1016.74 1016.90 1016.82 1016.86 1017.14 1017.38 1017.50 1017.50 1017.46 1017.62 1017.90 1017.66 1017.46 1017.54 1017.54 1018.06 1018.38 1018.34
1014.10 1014.22 1014.50 1014.62 1014.82 1014.78 1015.06 1014.98 1014.98 1015.06 1015.06 1015.18 1015.50 1015.50 1015.54 1015.74 1015.86 1015.82 1015.90 1016.10 1016.18 1016.26 1016.34 1016.34 1016.46 1016.78 1016.78 1016.82 1016.70 1017.06 1017.18 1016.86 1016.90 1017.66 1018.26 1018.70 1018.90 1019.38 1019.22 1018.66 1018.42 1018.62
1013.78 1013.94 1014.18 1014.46 1014.58 1014.54 1014.62 1014.62 1014.62 1014.74 1014.78 1015.10 1015.22 1015.18 1015.18 1015.38 1015.50 1015.62 1015.78 1015.90 1016.10 1016.18 1016.34 1016.42 1016.58 1016.58 1016.58 1016.38 1016.42 1016.70 1016.90 1016.78 1017.14 1017.94 1018.02 1018.10 1018.26 1018.70 1019.18 1019.18 1018.82 1018.62
1013.82 1013.70 1013.82 1014.10 1014.38 1014.38 1014.50 1014.42 1014.38 1014.54 1014.62 1014.90 1014.94 1014.90 1015.02 1015.02 1015.22 1015.34 1015.58 1015.98 1016.18 1016.26 1016.30 1016.38 1016.62 1016.70 1017.06 1017.38 1016.78 1016.34 1016.62 1016.90 1017.26 1017.46 1017.54 1017.58 1017.74 1017.98 1018.10 1018.22 1018.30 1018.38
1013.66 1013.62 1013.82 1013.98 1014.06 1014.06 1014.22 1014.30 1014.42 1014.46 1014.54 1014.74 1014.82 1014.94 1014.82 1014.82 1015.02 1015.22 1015.54 1015.78 1015.98 1015.98 1016.06 1016.14 1016.26 1016.38 1016.66 1016.98 1017.18 1016.02 1016.34 1016.66 1016.86 1016.94 1016.98 1017.10 1017.34 1017.66 1017.82 1017.90 1017.86 1017.86
1013.74 1013.70 1013.86 1013.98 1014.10 1014.02 1014.06 1014.14 1014.14 1014.30 1014.38 1014.46 1014.66 1014.90 1014.82 1014.70 1014.86 1014.94 1015.14 1015.50 1015.62 1015.62 1015.62 1015.74 1015.74 1015.98 1016.38 1016.50 1016.10 1015.78 1016.06 1016.46 1016.82 1017.14 1017.18 1016.90 1016.90 1017.22 1017.46 1017.54 1017.58 1017.50
1013.82 1013.86 1013.86 1014.02 1014.14 1014.06 1013.90 1014.06 1014.14 1014.14 1014.26 1014.46 1014.46 1014.70 1014.82 1014.82 1014.74 1014.98 1014.98 1015.18 1015.30 1015.38 1015.54 1015.62 1015.82 1015.78 1015.98 1016.10 1016.18 1016.26 1016.38 1016.58 1016.62 1016.58 1016.58 1016.58 1016.46 1016.74 1016.98 1017.22 1017.38 1017.30
1013.62 1013.70 1013.86 1013.94 1013.94 1014.10 1014.14 1014.14 1014.22 1014.22 1014.22 1014.26 1014.38 1014.62 1014.74 1014.74 1014.74 1014.70 1014.74 1014.86 1015.06 1015.26 1015.54 1015.70 1015.94 1016.06 1016.18 1016.26 1016.26 1016.26 1016.30 1016.30 1016.34 1016.34 1016.34 1016.30 1016.30 1016.50 1016.54 1016.82 1016.90 1016.98
1013.18 1013.34 1013.66 1013.94 1014.14 1014.30 1014.50 1014.50 1014.54 1014.58 1014.46 1014.46 1014.54 1014.58 1014.50 1014.54 1014.50 1014.58 1014.74 1014.98 1015.02 1015.34 1015.74 1015.86 1016.10 1016.46 1016.82 1016.94 1016.70 1016.46 1016.26 1016.30 1016.26 1016.34 1016.34 1016.54 1016.70 1016.62 1016.70 1016.82 1016.90 1017.02
1013.26 1013.46 1013.66 1013.86 1014.18 1014.46 1014.54 1014.54 1014.62 1014.70 1014.74 1014.94 1014.98 1014.98 1014.94 1014.74 1014.74 1014.74 1014.82 1015.02 1015.30 1015.70 1015.86 1016.10 1016.50 1016.90 1017.46 1017.46 1017.30 1016.94 1016.54 1016.26 1016.34 1016.38 1016.42 1016.58 1016.86 1017.02 1016.98 1016.98 1017.10 1017.10
1013.74 1013.90 1013.82 1013.98 1013.98 1014.14 1014.30 1014.50 1014.62 1014.66 1014.82 1014.98 1015.06 1015.10 1015.14 1015.02 1015.02 1015.06 1015.18 1015.14 1015.30 1015.58 1015.90 1016.26 1016.74 1017.34 1017.66 1017.54 1017.42 1017.26 1016.90 1016.34 1016.34 1016.38 1016.54 1016.78 1016.94 1017.14 1017.38 1017.50 1017.30 1017.22
1013.90 1014.10 1014.26 1014.18 1014.06 1014.10 1014.14 1014.22 1014.34 1014.50 1014.66 1014.78 1014.94 1015.10 1015.18 1015.22 1015.42 1015.46 1015.54 1015.66 1015.86 1016.02 1016.34 1016.58 1017.06 1017.66 1017.58 1017.54 1017.46 1017.30 1017.10 1016.70 1016.18 1016.54 1016.82 1016.94 1017.06 1017.14 1017.30 1017.34 1017.54 1017.78
1013.82 1014.02 1014.06 1014.26 1014.30 1014.02 1014.02 1014.10 1014.34 1014.54 1014.66 1014.74 1014.94 1014.94 1015.18 1015.58 1015.74 1015.86 1016.06 1015.90 1016.18 1016.54 1016.58 1016.74 1017.10 1017.62 1017.58 1017.50 1017.38 1017.30 1017.10 1016.74 1016.54 1016.94 1017.14 1017.38 1017.34 1017.46 1017.62 1017.82 1017.98 1018.18
1013.46 1013.66 1013.86 1013.98 1013.98 1013.94 1014.06 1014.26 1014.54 1014.86 1014.86 1014.86 1014.98 1015.18 1015.58 1015.90 1016.10 1016.30 1016.18 1016.30 1016.50 1016.74 1016.86 1016.82 1017.10 1017.58 1017.66 1017.62 1017.46 1017.26 1017.14 1016.94 1016.90 1017.26 1017.54 1017.78 1018.02 1018.14 1018.26 1018.38 1018.42 1018.62
1013.66 1013.66 1013.74 1013.82 1013.94 1014.06 1014.26 1014.46 1014.66 1014.86 1015.26 1015.42 1015.54 1015.70 1016.02 1016.50 1016.78 1016.86 1016.86 1016.82 1016.66 1016.58 1016.78 1017.06 1017.34 1017.86 1017.82 1017.70 1017.54 1017.38 1017.22 1017.02 1017.42 1017.66 1017.94 1018.22 1018.34 1018.38 1018.46 1018.50 1018.58 1018.50
1014.06 1014.10 1014.02 1013.98 1014.10 1014.22 1014.38 1014.54 1014.70 1015.14 1015.70 1015.82 1016.06 1016.26 1016.42 1016.74 1017.06 1017.10 1017.14 1017.02 1016.86 1016.94 1017.14 1017.26 1017.30 1017.82 1017.70 1017.58 1017.50 1017.38 1017.34 1017.54 1017.90 1018.26 1018.62 1018.82 1018.82 1018.82 1018.74 1018.62 1018.54 1018.70
1014.14 1014.18 1014.34 1014.38 1014.30 1014.46 1014.58 1014.62 1014.98 1015.46 1015.90 1015.98 1016.42 1016.66 1016.90 1017.22 1017.26 1017.34 1017.22 1017.10 1017.14 1017.22 1017.34 1017.34 1017.30 1017.58 1017.66 1017.62 1017.62 1017.62 1017.62 1017.90 1018.22 1018.58 1018.90 1019.06 1019.14 1018.98 1018.94 1018.78 1018.78 1018.86
1014.18 1014.30 1014.42 1014.38 1014.46 1014.62 1014.86 1015.14 1015.30 1015.58 1016.02 1016.14 1016.54 1016.94 1017.26 1017.62 1017.54 1017.54 1017.58 1017.30 1017.30 1017.42 1017.38 1017.50 1017.78 1018.02 1017.98 1017.94 1017.90 1017.82 1017.82 1018.22 1018.58 1018.94 1019.22 1019.22 1019.26 1019.30 1019.30 1019.38 1019.58 1019.62
1013.98 1014.06 1014.26 1014.46 1014.74 1014.94 1015.18 1015.50 1015.74 1015.98 1016.18 1016.34 1016.54 1016.82 1017.46 1017.82 1017.86 1017.78 1017.70 1017.66 1017.62 1017.66 1017.62 1017.70 1018.10 1018.42 1018.46 1018.42 1018.30 1018.18 1018.18 1018.38 1018.66 1018.94 1019.22 1019.46 1019.70 1020.06 1020.22 1020.30 1020.38 1020.46
1014.06 1014.22 1014.38 1014.54 1014.86 1015.18 1015.42 1015.62 1015.78 1016.14 1016.38 1016.62 1016.82 1017.22 1017.78 1017.98 1018.02 1018.14 1018.22 1018.38 1018.30 1018.18 1018.18 1018.38 1018.78 1019.02 1019.02 1018.82 1018.70 1018.58 1018.42 1018.42 1018.58 1018.94 1019.42 1019.70 1019.90 1020.14 1020.42 1020.58 1020.70 1020.98
Thickness
5772 5772 5771 5771 5771 5772 5772 5772 5773 5772 5771 5773 5774 5774 5774 5775 5776 5777 5776 5776 5774 5774 5773 5773 5773 5773 5774 5774 5774 5774 5774 5774 5774 5776 5776 5774 5774 5776 5775 5775 5776 5776
5773 5773 5773 5773 5773 5773 5773 5774 5774 5773 5773 5774 5776 5777 5776 5777 5777 5777 5777 5777 5776 5776 5776 5775 5775 5774 5775 5776 5775 5774 5774 5773 5774 5777 5777 5775 5775 5776 5776 5776 5777 5777
5774 5775 5774 5774 5775 5774 5775 5776 5775 5775 5776 5776 5776 5777 5778 5779 5779 5778 5778 5778 5778 5778 5778 5777 5777 5777 5776 5776 5775 5775 5775 5773 5774 5777 5777 5775 5776 5777 5777 5779 5779 5780
5777 5777 5777 5777 5778 5778 5778 5777 5776 5777 5777 5777 5778 5778 5780 5780 5780 5779 5778 5778 5778 5779 5779 5779 5779 5778 5778 5777 5776 5775 5775 5774 5775 5776 5775 5775 5777 5777 5778 5781 5782 5782
5780 5779 5780 5779 5780 5780 5780 5779 5777 5778 5779 5778 5779 5781 5780 5778 5779 5779 5779 5779 5778 5779 5780 5779 5779 5780 5779 5778 5777 5775 5775 5776 5777 5777 5773 5774 5776 5779 5783 5784 5782 5779
5782 5781 5781 5780 5780 5780 5779 5779 5780 5781 5781 5780 5781 5782 5782 5780 5779 5780 5780 5780 5780 5781 5781 5781 5781 5781 5781 5779 5778 5776 5776 5776 5778 5777 5774 5774 5778 5782 5785 5782 5776 5774
5783 5782 5781 5780 5781 5780 5780 5781 5782 5783 5784 5784 5783 5783 5783 5782 5780 5781 5781 5781 5782 5782 5783 5783 5781 5780 5781 5781 5778 5776 5776 5776 5777 5776 5774 5775 5776 5777 5777 5774 5771 5771
5785 5784 5783 5782 5782 5782 5782 5784 5784 5786 5786 5785 5784 5784 5784 5783 5782 5782 5782 5782 5782 5782 5783 5783 5781 5781 5781 5782 5781 5778 5778 5779 5778 5773 5770 5770 5769 5765 5764 5766 5769 5769
5785 5786 5785 5783 5783 5784 5784 5786 5786 5787 5787 5785 5785 5785 5786 5785 5784 5784 5784 5782 5782 5781 5781 5781 5780 5779 5778 5780 5782 5781 5779 5780 5777 5772 5770 5770 5768 5764 5762 5764 5765 5765
5785 5785 5785 5784 5784 5784 5785 5785 5786 5786 5786 5785 5785 5785 5786 5786 5786 5785 5784 5782 5781 5781 5781 5781 5779 5779 5776 5775 5779 5782 5780 5777 5775 5773 5773 5772 5771 5770 5768 5767 5766 5766
5783 5784 5784 5783 5784 5784 5785 5785 5785 5785 5785 5785 5784 5784 5785 5787 5786 5785 5784 5782 5782 5782 5782 5781 5780 5780 5778 5774 5777 5783 5781 5776 5775 5774 5774 5774 5773 5771 5768 5767 5767 5767
5781 5782 5782 5781 5782 5784 5785 5784 5784 5785 5785 5784 5783 5783 5784 5786 5785 5785 5785 5783 5783 5783 5783 5783 5782 5781 5779 5777 5779 5782 5780 5776 5774 5773 5773 5776 5776 5772 5768 5767 5768 5768
5777 5778 5780 5780 5781 5783 5783 5783 5783 5783 5783 5783 5783 5782 5782 5783 5783 5783 5784 5783 5783 5783 5782 5781 5780 5779 5778 5777 5777 5778 5776 5775 5774 5773 5774 5777 5777 5774 5770 5768 5768 5768
5777 5778 5778 5779 5779 5780 5780 5779 5779 5780 5780 5781 5780 5780 5780 5781 5781 5782 5782 5782 5781 5781 5779 5778 5776 5774 5773 5773 5773 5774 5773 5773 5774 5773 5774 5774 5774 5773 5771 5770 5768 5767
5777 5777 5776 5775 5775 5774 5774 5774 5775 5775 5776 5776 5776 5776 5777 5778 5779 5779 5779 5778 5778 5776 5774 5774 5772 5769 5767 5766 5768 5770 5771 5772 5771 5771 5770 5770 5770 5770 5769 5768 5765 5763
5773 5773 5773 5772 5771 5769 5769 5769 5770 5771 5771 5771 5771 5771 5772 5774 5775 5775 5775 5775 5774 5771 5770 5769 5767 5763 5760 5760 5762 5764 5767 5768 5768 5767 5767 5766 5765 5765 5764 5763 5761 5760
5767 5767 5768 5769 5769 5768 5768 5768 5768 5769 5769 5768 5769 5768 5769 5769 5769 5769 5769 5770 5769 5767 5765 5764 5761 5757 5756 5756 5758 5759 5761 5764 5765 5764 5763 5761 5760 5761 5759 5757 5757 5756
5763 5762 5763 5764 5766 5767 5767 5768 5768 5768 5768 5767 5767 5766 5765 5764 5763 5763 5762 5762 5762 5761 5760 5759 5755 5753 5753 5753 5754 5755 5756 5759 5761 5760 5758 5757 5757 5756 5755 5754 5753 5750
5761 5761 5760 5760 5762 5764 5766 5767 5764 5764 5764 5763 5763 5763 5761 5759 5758 5757 5756 5756 5756 5753 5753 5754 5752 5749 5750 5751 5752 5752 5752 5754 5756 5754 5752 5751 5750 5749 5748 5748 5746 5743
5758 5759 5759 5758 5759 5761 5763 5761 5759 5758 5757 5757 5758 5757 5755 5752 5751 5750 5750 5750 5750 5748 5748 5749 5747 5745 5746 5747 5747 5748 5749 5750 5750 5748 5746 5744 5743 5741 5741 5740 5739 5736
5752 5753 5754 5755 5756 5757 5757 5756 5755 5753 5750 5749 5750 5749 5747 5744 5743 5743 5743 5743 5744 5744 5743 5743 5742 5739 5740 5742 5743 5744 5745 5745 5743 5741 5739 5737 5735 5735 5735 5735 5734 5732
5745 5745 5747 5750 5751 5751 5751 5751 5749 5745 5742 5743 5743 5741 5739 5737 5735 5736 5736 5737 5738 5738 5737 5738 5737 5736 5736 5738 5739 5739 5739 5738 5735 5733 5731 5729 5728 5728 5730 5731 5730 5728
5739 5739 5740 5743 5744 5744 5744 5744 5742 5738 5736 5737 5735 5732 5731 5729 5730 5731 5730 5730 5732 5732 5732 5734 5733 5732 5732 5733 5734 5734 5733 5731 5729 5726 5724 5722 5722 5722 5723 5724 5723 5721
5734 5735 5736 5737 5738 5739 5738 5736 5734 5731 5731 5731 5729 5726 5723 5721 5722 5724 5724 5725 5727 5727 5728 5729 5727 5725 5726 5727 5727 5728 5727 5725 5722 5720 5718 5717 5716 5714 5714 5714 5713 5712
5730 5730 5731 5732 5732 5732 5732 5729 5727 5724 5723 5724 5724 5721 5717 5714 5715 5716 5717 5719 5720 5720 5722 5722 5719 5717 5718 5719 5720 5721 5721 5721 5718 5716 5713 5711 5709 5706 5705 5704 5703 5701
5725 5724 5726 5727 5726 5725 5723 5721 5719 5719 5718 5717 5717 5715 5710 5708 5708 5708 5709 5711 5711 5713 5714 5714 5711 5709 5709 5711 5713 5714 5715 5716 5714 5711 5708 5706 5703 5701 5699 5696 5695 5693